Location: Silberh�tte
(51.6954°N, 10.5034°E)
Time: 05:48:06
(UTC+00:00)

Daily predictions for brighter satellites

Satellite Brightness Start Highest point End
(mag) Time Altitude Azimuth Time Altitude Azimuth Time Altitude Azimuth
STARLINK-1390 3.7 00:00:20 10° W 00:04:21 77° N 00:08:23 10° E
Cosmos 2322 Rocket 4.5 00:05:04 10° ESE 00:07:03 12° E 00:09:01 10° ENE
STARLINK-1365 3.7 00:04:15 10° W 00:08:18 76° N 00:12:22 10° E
Cosmos 1898 Rocket 4.1 00:03:47 10° NW 00:08:48 43° WSW 00:11:43 23° SSW
ERBS 3.2 00:06:00 10° WNW 00:08:52 28° SW 00:08:52 28° SW
STARLINK-41 4.2 00:09:05 24° SE 00:09:05 24° SE 00:11:37 10° E
USA 229 DEB 4.2 00:02:30 10° NW 00:09:40 69° NE 00:17:11 10° ESE
USA 229 4.2 00:02:37 10° NW 00:09:45 68° NE 00:17:17 10° ESE
NOSS 3-1 (C) 4.2 00:03:55 10° NW 00:11:06 74° NE 00:19:32 10° SE
Cosmos 1400 Rocket 3.6 00:07:53 10° N 00:11:57 50° ENE 00:15:19 14° SSE
Cosmos 2278 4.0 00:09:40 22° S 00:13:14 55° ESE 00:18:47 10° NE
ATLAS CENTAUR R/B 3.0 00:11:20 10° W 00:12:31 19° WSW 00:12:31 19° WSW
Cosmos 1697 Rocket 2.7 00:10:39 22° SSW 00:14:28 80° ESE 00:20:10 10° NNE
Cosmos 372 Rocket 4.0 00:12:22 10° NNW 00:17:33 87° ENE 00:22:10 13° SSE
GP-B 4.0 00:13:38 10° NNE 00:17:54 42° E 00:21:22 14° SSE
Cosmos 1953 Rocket 4.2 00:16:05 19° SSE 00:18:59 49° E 00:23:14 10° NNE
Cosmos-2242 2.9 00:15:01 10° NNW 00:19:18 84° W 00:21:58 22° S
Cosmos 1626 Rocket 4.4 00:18:07 19° SW 00:20:47 39° WNW 00:24:56 10° N
STARLINK 1040 2.3 00:20:41 46° SSW 00:21:10 59° SSE 00:23:42 10° ENE
Cosmos 2221 4.3 00:18:01 10° N 00:21:50 28° ENE 00:25:37 10° SE
Cosmos 2150 Rocket 4.1 00:16:52 10° NNW 00:22:04 74° ENE 00:27:12 10° SSE
STARLINK-1444 1.7 00:20:06 10° WNW 00:22:14 84° SSW 00:24:28 10° ESE
Cosmos 2227 Rocket 3.4 00:17:47 10° NW 00:22:24 26° WSW 00:25:05 19° SW
STARLINK-1452 1.7 00:20:42 10° WNW 00:22:51 84° SSW 00:25:04 10° ESE
STARLINK-55 3.6 00:22:38 31° S 00:23:21 35° SSE 00:26:20 10° E
STARLINK-1292 4.5 00:22:49 24° S 00:23:45 27° SE 00:26:57 10° E
STARLINK-1450 1.7 00:22:00 10° WNW 00:24:04 82° SSW 00:26:15 10° ESE
STARLINK-1436 (VISORSAT) 1.7 00:22:00 10° WNW 00:24:06 82° SSW 00:26:19 10° ESE
STARLINK-1392 1.7 00:22:06 10° WNW 00:24:11 82° SSW 00:26:22 10° ESE
STARLINK-1398 1.7 00:22:04 10° WNW 00:24:11 82° SSW 00:26:25 10° ESE
STARLINK-1399 1.7 00:22:07 10° WNW 00:24:12 82° SSW 00:26:23 10° ESE
STARLINK-1415 1.7 00:22:08 10° WNW 00:24:12 82° SSW 00:26:23 10° ESE
STARLINK-1414 1.7 00:22:06 10° WNW 00:24:12 82° SSW 00:26:25 10° ESE
STARLINK-1394 1.7 00:22:08 10° WNW 00:24:13 82° SSW 00:26:23 10° ESE
STARLINK-1395 1.7 00:22:08 10° WNW 00:24:13 82° SSW 00:26:24 10° ESE
STARLINK-1393 1.7 00:22:08 10° WNW 00:24:13 82° SSW 00:26:24 10° ESE
STARLINK-1416 1.7 00:22:07 10° WNW 00:24:13 82° SSW 00:26:26 10° ESE
STARLINK-1396 1.7 00:22:09 10° WNW 00:24:14 82° SSW 00:26:24 10° ESE
STARLINK-1397 1.7 00:22:09 10° WNW 00:24:14 82° SSW 00:26:25 10° ESE
STARLINK-1401 1.7 00:22:09 10° WNW 00:24:14 82° SSW 00:26:25 10° ESE
STARLINK-1408 1.7 00:22:08 10° WNW 00:24:15 82° SSW 00:26:27 10° ESE
STARLINK-1404 1.7 00:22:10 10° WNW 00:24:15 82° SSW 00:26:25 10° ESE
STARLINK-1419 1.7 00:22:08 10° WNW 00:24:15 82° SSW 00:26:28 10° ESE
STARLINK-1453 1.7 00:22:10 10° WNW 00:24:15 81° SSW 00:26:26 10° ESE
STARLINK-1402 1.7 00:22:11 10° WNW 00:24:16 81° SSW 00:26:27 10° ESE
STARLINK-1417 1.7 00:22:11 10° WNW 00:24:16 81° SSW 00:26:27 10° ESE
STARLINK-1413 1.7 00:22:12 10° WNW 00:24:17 81° SSW 00:26:28 10° ESE
STARLINK-1420 1.7 00:22:10 10° WNW 00:24:17 82° SSW 00:26:30 10° ESE
STARLINK-1406 1.7 00:22:13 10° WNW 00:24:18 81° SSW 00:26:28 10° ESE
STARLINK-1422 1.7 00:22:12 10° WNW 00:24:18 82° SSW 00:26:31 10° ESE
STARLINK-1460 1.7 00:22:12 10° WNW 00:24:18 82° SSW 00:26:32 10° ESE
STARLINK-1458 1.7 00:22:12 10° WNW 00:24:19 82° SSW 00:26:32 10° ESE
STARLINK-1440 1.7 00:22:14 10° WNW 00:24:19 81° SSW 00:26:30 10° ESE
STARLINK-1445 1.7 00:22:15 10° WNW 00:24:20 81° SSW 00:26:31 10° ESE
STARLINK-1443 1.7 00:22:16 10° WNW 00:24:21 81° SSW 00:26:32 10° ESE
STARLINK-1437 1.7 00:22:15 10° WNW 00:24:21 82° SSW 00:26:34 10° ESE
STARLINK-1454 1.7 00:22:16 10° WNW 00:24:21 81° SSW 00:26:32 10° ESE
STARLINK-1457 1.7 00:22:17 10° WNW 00:24:21 81° SSW 00:26:32 10° ESE
STARLINK-1456 1.7 00:22:17 10° WNW 00:24:22 81° SSW 00:26:33 10° ESE
STARLINK-1451 1.7 00:22:18 10° WNW 00:24:22 81° SSW 00:26:33 10° ESE
STARLINK-1446 1.7 00:22:15 10° WNW 00:24:23 82° SSW 00:26:36 10° ESE
STARLINK-1442 1.7 00:22:19 10° WNW 00:24:24 81° S 00:26:34 10° ESE
Resurs 1-4 Rocket 3.2 00:19:32 10° NNE 00:24:24 35° E 00:28:43 13° SSE
STARLINK-1447 1.7 00:22:18 10° WNW 00:24:25 82° SSW 00:26:39 10° ESE
STARLINK-1455 1.7 00:22:19 10° WNW 00:24:26 82° SSW 00:26:39 10° ESE
STARLINK-1405 1.7 00:22:21 10° WNW 00:24:26 81° SSW 00:26:37 10° ESE
STARLINK-1421 1.7 00:22:21 10° WNW 00:24:26 81° SSW 00:26:37 10° ESE
STARLINK-1338 3.7 00:20:29 10° W 00:24:26 72° N 00:28:23 10° E
STARLINK-1423 1.7 00:22:19 10° WNW 00:24:26 82° SSW 00:26:39 10° ESE
STARLINK-1441 1.7 00:22:19 10° WNW 00:24:26 82° SSW 00:26:40 10° ESE
STARLINK-1400 1.7 00:22:22 10° WNW 00:24:26 81° SSW 00:26:37 10° ESE
STARLINK-1410 1.7 00:22:22 10° WNW 00:24:27 81° SSW 00:26:37 10° ESE
STARLINK-1407 1.7 00:22:23 10° WNW 00:24:27 81° SSW 00:26:38 10° ESE
STARLINK-1409 1.7 00:22:23 10° WNW 00:24:28 81° SSW 00:26:39 10° ESE
STARLINK-1439 1.7 00:22:22 10° WNW 00:24:28 81° SSW 00:26:38 10° ESE
STARLINK-1449 1.7 00:22:20 10° WNW 00:24:28 82° SSW 00:26:41 10° ESE
STARLINK-1448 1.7 00:22:21 10° WNW 00:24:28 82° SSW 00:26:41 10° ESE
STARLINK-1351 1.7 00:22:24 10° WNW 00:24:28 81° SSW 00:26:40 10° ESE
STARLINK-1370 1.7 00:22:24 10° WNW 00:24:28 81° SSW 00:26:40 10° ESE
STARLINK-1418 1.7 00:22:24 10° WNW 00:24:29 81° SSW 00:26:40 10° ESE
STARLINK-1434 1.7 00:22:24 10° WNW 00:24:29 81° SSW 00:26:40 10° ESE
STARLINK-1403 1.7 00:22:25 10° WNW 00:24:30 81° SSW 00:26:41 10° ESE
STARLINK-1433 1.7 00:22:26 10° WNW 00:24:31 81° SSW 00:26:42 10° ESE
STARLINK-1411 1.7 00:22:27 10° WNW 00:24:32 81° SSW 00:26:43 10° ESE
STARLINK-1438 1.7 00:22:28 10° WNW 00:24:33 81° SSW 00:26:44 10° ESE
STARLINK-1412 1.7 00:22:28 10° WNW 00:24:35 81° SSW 00:26:49 10° ESE
STARLINK-1301 4.4 00:25:24 25° S 00:26:35 30° SE 00:29:58 10° E
Cosmos 2227 4.4 00:21:22 10° NNW 00:27:10 76° ENE 00:32:56 10° SE
STARLINK-1283 4.4 00:27:35 24° S 00:29:13 34° SE 00:32:56 10° E
Cosmos 1814 Rocket 4.2 00:26:04 21° S 00:29:39 66° ESE 00:34:55 10° NNE
STARLINK-1289 4.4 00:29:04 24° S 00:30:14 30° SE 00:33:31 10° E
IRAS Rocket 4.3 00:26:35 18° S 00:30:49 69° WSW 00:36:21 10° NNW
STARLINK-29 2.9 00:29:17 10° WNW 00:32:30 86° NNE 00:35:42 10° ESE
STARLINK-1371 3.7 00:28:37 10° W 00:32:35 72° N 00:36:32 10° E
STARLINK-1303 4.3 00:32:15 24° S 00:33:31 31° SE 00:36:51 10° E
STARLINK-28 3.3 00:33:31 29° SSW 00:34:41 44° SSE 00:37:47 10° E
STARLINK-26 3.5 00:33:53 27° SSW 00:35:19 43° SSE 00:38:37 10° ENE
STARLINK-1341 3.7 00:32:43 10° W 00:36:41 72° N 00:40:39 10° E
STARLINK-1312 4.2 00:35:25 24° S 00:36:48 32° SSE 00:40:11 10° E
Cosmos 1125 Rocket 3.9 00:33:36 10° NNW 00:38:47 66° ENE 00:43:58 10° SE
STARLINK-1374 3.8 00:36:50 10° W 00:40:47 71° N 00:44:45 10° E
UNK 3.9 00:36:35 11° SSE 00:40:56 71° ENE 00:45:31 10° N
SL-16 R/B 3.7 00:36:40 10° SSE 00:41:14 26° ESE 00:45:51 10° NE
Cosmos 841 Rocket 3.5 00:37:44 20° SSW 00:41:26 89° NW 00:46:41 10° NNE
Helios 1B rocket 3.4 00:38:58 10° N 00:42:48 37° WNW 00:45:37 16° SW
Cosmos 1570 Rocket 4.1 00:39:09 19° SSW 00:43:00 79° WNW 00:48:18 10° NNE
GEOS 3 Rocket 3.8 00:37:54 10° SE 00:43:08 81° NE 00:48:28 10° NW
STARLINK-1339 3.8 00:40:58 10° W 00:44:56 71° N 00:48:54 10° E
Cosmos 1315 Rocket 3.8 00:42:25 10° N 00:46:12 43° ENE 00:49:58 10° SE
CZ-4C R/B 3.6 00:42:54 14° SSE 00:46:38 90° SSW 00:51:07 10° NNW
STARLINK-80 4.0 00:45:26 23° SSW 00:47:19 39° SSE 00:50:53 10° E
Cosmos 2298 Rocket 4.0 00:43:12 10° NNW 00:48:29 67° WSW 00:53:21 12° S
STARLINK-1377 3.8 00:45:08 10° W 00:49:06 72° N 00:53:04 10° E
STARLINK-33 3.1 00:47:57 25° SW 00:49:25 48° SSE 00:52:27 10° ENE
CZ-4C R/B 2.5 00:44:45 12° WSW 00:49:39 67° NW 00:56:01 10° NE
Cosmos 1763 Rocket 4.1 00:45:56 15° SW 00:49:59 47° WNW 00:54:54 10° NNE
STARLINK-1320 3.2 00:48:53 10° W 00:52:00 69° N 00:55:07 10° E
CZ-2D R/B 2.5 00:46:59 10° NNE 00:52:08 55° E 00:56:32 14° S
STARLINK-1322 3.2 00:49:13 10° W 00:52:21 69° N 00:55:28 10° E
STARLINK-1324 3.2 00:49:34 10° W 00:52:41 69° N 00:55:48 10° E
STARLINK-1294 3.2 00:49:50 10° W 00:52:58 69° N 00:56:06 10° E
STARLINK-1353 3.8 00:49:17 10° W 00:53:15 72° N 00:57:13 10° E
STARLINK-1261 3.2 00:50:14 10° WNW 00:53:20 69° N 00:56:29 10° E
STARLINK-1325 3.2 00:50:34 10° WNW 00:53:41 69° N 00:56:49 10° E
STARLINK-1333 3.2 00:50:56 10° WNW 00:54:03 69° N 00:57:11 10° E
STARLINK-1334 3.2 00:51:15 10° WNW 00:54:22 70° N 00:57:29 10° E
STARLINK-1326 3.1 00:51:36 10° WNW 00:54:43 70° N 00:57:50 10° E
Cosmos 1825 Rocket 3.9 00:51:55 19° SSW 00:54:49 54° WNW 00:59:07 10° N
Cosmos 2184 Rocket 4.2 00:49:34 14° S 00:54:58 68° E 01:01:06 10° NNE
STARLINK-1323 3.2 00:51:55 10° WNW 00:55:03 70° N 00:58:10 10° E
STARLINK-1349 3.1 00:52:14 10° WNW 00:55:22 70° N 00:58:29 10° E
STARLINK-1336 3.1 00:52:35 10° WNW 00:55:42 70° N 00:58:50 10° E
STARLINK-1331 3.1 00:52:57 10° WNW 00:56:04 70° N 00:59:11 10° E
STARLINK-1344 3.1 00:53:15 10° WNW 00:56:23 70° N 00:59:31 10° E
STARLINK-1343 3.1 00:53:37 10° WNW 00:56:44 70° N 00:59:52 10° E
STARLINK-1346 3.2 00:53:55 10° WNW 00:57:04 70° N 01:00:13 10° E
STARLINK-1328 3.1 00:54:19 10° WNW 00:57:27 70° N 01:00:33 10° E
STARLINK-1375 3.7 00:53:28 10° W 00:57:27 72° N 01:01:24 10° E
STARLINK-1354 3.1 00:54:39 10° WNW 00:57:45 70° N 01:00:52 10° E
STARLINK-1347 3.1 00:54:57 10° WNW 00:58:04 70° N 01:01:11 10° E
STARLINK-1357 3.1 00:55:19 10° WNW 00:58:27 71° N 01:01:34 10° E
STARLINK-1335 3.1 00:55:38 10° WNW 00:58:46 71° N 01:01:53 10° E
STARLINK-1327 3.1 00:55:59 10° WNW 00:59:07 71° N 01:02:14 10° E
STARLINK-1340 3.1 00:56:21 10° WNW 00:59:28 71° N 01:02:35 10° E
STARLINK-1356 3.1 00:56:40 10° WNW 00:59:47 71° N 01:02:55 10° E
STARLINK-1345 3.1 00:57:00 10° WNW 01:00:08 71° N 01:03:16 10° E
STARLINK-1355 3.1 00:57:20 10° WNW 01:00:27 71° N 01:03:35 10° E
Cosmos 2208 Rocket 4.2 00:56:35 17° SW 01:00:42 69° WNW 01:06:06 10° NNE
STARLINK-1321 3.1 00:57:40 10° WNW 01:00:47 71° N 01:03:55 10° E
STARLINK-1358 3.1 00:58:02 10° WNW 01:01:10 71° N 01:04:17 10° E
STARLINK-1332 3.1 00:58:20 10° WNW 01:01:28 72° N 01:04:35 10° E
STARLINK-1350 3.7 00:57:37 10° W 01:01:36 73° N 01:05:34 10° E
STARLINK-1348 3.1 00:58:40 10° WNW 01:01:48 72° N 01:04:55 10° E
STARLINK-1330 3.1 00:59:02 10° WNW 01:02:09 72° N 01:05:17 10° E
Lacrosse 4 Rocket 3.3 01:00:09 10° WNW 01:02:18 14° WSW 01:03:15 13° WSW
STARLINK-1363 3.1 00:59:20 10° WNW 01:02:28 72° N 01:05:35 10° E
STARLINK-1297 3.7 01:00:39 21° SSW 01:02:42 43° SSE 01:06:06 10° ENE
STARLINK-1337 3.1 00:59:41 10° WNW 01:02:49 72° N 01:05:57 10° E
STARLINK-1342 3.1 01:00:04 10° WNW 01:03:11 72° N 01:06:18 10° E
STARLINK-66 3.0 01:01:11 19° SW 01:03:17 60° SSE 01:06:28 10° ENE
STARLINK-1364 3.1 01:00:23 10° WNW 01:03:31 72° N 01:06:39 10° E
STARLINK-1376 3.1 01:00:43 10° WNW 01:03:51 72° N 01:06:58 10° E
STARLINK-1360 3.1 01:01:03 10° WNW 01:04:11 72° N 01:07:19 10° E
STARLINK-1361 3.1 01:01:25 10° WNW 01:04:32 73° N 01:07:39 10° E
STARLINK-1367 3.1 01:01:42 10° WNW 01:04:51 73° N 01:08:01 10° E
Cosmos 2360 Rocket 4.3 01:01:21 10° SE 01:05:05 18° E 01:08:49 10° ENE
STARLINK-1366 3.1 01:02:04 10° WNW 01:05:12 73° N 01:08:19 10° E
STARLINK-1268 3.2 01:04:05 22° SW 01:05:45 45° SSE 01:08:44 10° E
STARLINK-1352 3.7 01:01:52 10° W 01:05:49 73° N 01:09:48 10° E
STARLINK-52 2.8 01:04:43 10° WNW 01:07:57 73° SSW 01:11:08 10° ESE
STARLINK-58 3.6 01:07:08 21° SSW 01:08:46 38° SSE 01:11:45 10° E
STARLINK-1316 3.2 01:07:38 20° SW 01:09:29 48° SSE 01:12:30 10° ENE
STARLINK-1368 3.7 01:06:05 10° W 01:10:04 74° N 01:14:03 10° E
STARLINK-1257 3.2 01:08:29 20° SW 01:10:22 49° SSE 01:13:24 10° ENE
STARLINK-1256 3.1 01:09:23 20° SW 01:11:17 49° SSE 01:14:19 10° ENE
Cosmos 1980 Rocket 2.3 01:07:19 15° SW 01:12:00 73° WNW 01:17:42 10° NNE
STARLINK-1213 3.1 01:10:16 19° SW 01:12:12 50° SSE 01:15:14 10° ENE
STARLINK-1263 3.1 01:11:07 19° SW 01:13:05 51° SSE 01:16:09 10° ENE
STARLINK-1259 3.1 01:12:00 19° SW 01:14:00 51° SSE 01:17:03 10° ENE
STARLINK-1369 3.7 01:10:20 10° W 01:14:19 75° N 01:18:17 10° E
STARLINK-1265 3.1 01:12:24 19° SW 01:14:26 52° SSE 01:17:31 10° ENE
STARLINK-75 3.0 01:12:04 16° WSW 01:14:30 64° SSE 01:17:43 10° ENE
Cosmos 1455 4.2 01:12:37 10° NW 01:14:47 15° W 01:16:34 11° WSW
STARLINK-1285 3.1 01:12:51 18° SW 01:14:53 52° SSE 01:17:57 10° ENE
Meteor 1-11 4.3 01:11:52 15° SSW 01:16:31 72° WNW 01:22:07 10° N
STARLINK-1296 3.1 01:14:36 18° SW 01:16:42 53° SSE 01:19:45 10° ENE
STARLINK-1260 3.1 01:15:25 18° SW 01:17:34 54° SSE 01:20:38 10° ENE
USA 215 4.3 01:13:42 13° S 01:17:48 22° SW 01:22:43 10° WNW
STARLINK-1317 3.6 01:15:01 15° SW 01:18:03 57° SSE 01:21:51 10° ENE
STARLINK-1307 3.5 01:15:22 16° SW 01:18:06 54° SSE 01:21:41 10° ENE
STARLINK-1318 3.0 01:16:19 17° SW 01:18:29 54° SSE 01:21:33 10° ENE
STARLINK-1372 3.7 01:14:35 10° W 01:18:35 76° N 01:22:33 10° E
SL-08 R/B 4.4 01:14:23 10° SE 01:18:45 45° ENE 01:23:09 10° N
STARLINK-1275 3.0 01:17:12 17° SW 01:19:23 55° SSE 01:22:28 10° ENE
STARLINK-1309 3.0 01:18:04 17° SW 01:20:17 56° SSE 01:23:21 10° ENE
SL-4 R/B 2.6 01:16:25 10° W 01:21:03 45° SSW 01:25:31 10° SE
STARLINK-1282 3.0 01:18:56 16° SW 01:21:11 56° SSE 01:24:16 10° ENE
STARLINK-1290 3.5 01:18:35 15° SW 01:21:27 56° SSE 01:25:03 10° ENE
STARLINK-1313 2.9 01:19:53 15° WSW 01:22:17 62° SSE 01:25:23 10° ENE
STARLINK-1272 3.3 01:19:57 15° SW 01:22:43 57° SSE 01:26:13 10° ENE
STARLINK-1378 3.7 01:18:50 10° WNW 01:22:49 77° N 01:26:48 10° E
STARLINK-22 3.0 01:20:24 15° SW 01:22:54 61° SSE 01:26:05 10° ENE
BREEZE-M DEB (TANK) 2.7 01:22:09 21° SSW 01:23:02 30° SSE 01:25:41 10° E
FALCON 9 DEB 3.0 01:19:37 10° WNW 01:23:04 81° SSW 01:26:32 10° ESE
STARLINK-1279 2.9 01:20:47 15° WSW 01:23:13 63° SSE 01:26:18 10° ENE
STARLINK-1298 3.0 01:21:30 16° SW 01:23:52 58° SSE 01:26:57 10° ENE
STARLINK-1293 3.0 01:22:22 15° SW 01:24:45 59° SSE 01:27:51 10° ENE
STARLINK-1255 2.9 01:24:08 15° SW 01:26:36 60° SSE 01:29:41 10° ENE
Cosmos 2263 Rocket 2.4 01:21:19 10° NW 01:26:44 51° WSW 01:32:05 10° S
STARLINK-1379 3.7 01:23:08 10° WNW 01:27:07 78° N 01:31:07 10° E
Cosmos 540 Rocket 4.2 01:23:50 12° SW 01:28:23 44° WNW 01:33:18 10° NNE
Cosmos 2154 Rocket 4.1 01:22:50 10° S 01:29:04 79° E 01:35:19 10° NNE
SL-16 R/B 2.8 01:24:14 10° S 01:30:07 49° W 01:36:08 10° NNW
STARLINK-1329 3.6 01:26:28 10° WNW 01:30:28 80° NNE 01:34:27 10° E
ATLAS CENTAUR R/B 4.4 01:29:41 10° NNW 01:31:26 12° N 01:33:09 10° NNE
H-2A R/B 4.0 01:28:11 10° SE 01:32:09 32° ENE 01:36:12 10° N
Meteor 2-17 Rocket 4.5 01:26:23 11° S 01:32:20 88° W 01:38:30 10° N
Cosmos 1076 Rocket 4.2 01:28:28 10° S 01:32:44 53° E 01:37:01 10° NNE
STARLINK-1362 3.6 01:30:48 10° WNW 01:34:48 81° N 01:38:50 10° E
ADEOS II 2.7 01:30:21 10° NNE 01:35:31 54° E 01:40:40 10° S
STARLINK-1291 3.3 01:32:11 11° WSW 01:35:36 67° SSE 01:39:16 10° ENE
STARLINK-43 3.4 01:31:57 10° W 01:35:39 77° N 01:39:21 10° ENE
Cosmos 1869 3.3 01:32:25 10° NNW 01:36:17 63° W 01:40:05 10° S
STARLINK-60 3.8 01:33:30 10° W 01:36:17 28° SW 01:39:04 10° SSE
NPP 3.7 01:31:17 10° NNE 01:36:43 78° WNW 01:41:55 11° SSW
STARLINK-1311 2.6 01:34:29 11° WSW 01:37:14 75° SSE 01:40:12 10° ENE
STARLINK-42 2.8 01:34:47 10° WSW 01:37:56 84° SSE 01:41:06 10° ENE
STARLINK-1029 3.3 01:35:36 14° SW 01:38:04 47° SSE 01:41:09 10° ENE
STARLINK-1264 3.3 01:35:13 11° WSW 01:38:45 69° SSE 01:42:26 10° ENE
STARLINK-1373 3.6 01:35:10 10° WNW 01:39:11 83° NNE 01:43:11 10° E
CZ-4B R/B 3.6 01:34:54 10° NNE 01:40:11 85° WNW 01:45:27 10° SSW
Cosmos 1892 3.0 01:37:17 10° S 01:41:01 62° E 01:44:47 10° NNE
STARLINK-1274 3.2 01:38:05 10° WSW 01:41:34 71° SSE 01:45:06 10° ENE
STARLINK-1267 3.3 01:38:16 10° WSW 01:41:57 72° SSE 01:45:38 10° ENE
STARLINK-34 2.9 01:40:11 12° WSW 01:42:55 60° SSE 01:45:58 10° ENE
IRIDIUM 106 4.5 01:37:45 10° S 01:42:57 78° E 01:48:12 10° N
STARLINK-1390 3.6 01:39:33 10° WNW 01:43:34 85° NNE 01:47:35 10° ESE
ERS-2 3.5 01:40:39 10° SE 01:44:07 42° ENE 01:47:37 10° N
STARLINK-41 2.8 01:41:17 10° WSW 01:44:24 87° SSE 01:47:31 10° ENE
IRS-1D 3.7 01:39:53 10° NNE 01:45:13 79° ESE 01:50:24 10° SSW
STARLINK-62 2.9 01:42:25 11° WSW 01:45:18 62° SSE 01:48:22 10° ENE
STARLINK-1365 3.6 01:43:34 10° WNW 01:47:38 87° NNE 01:51:42 10° ESE
STARLINK-1207 3.3 01:44:41 10° WSW 01:48:23 76° SSE 01:52:06 10° ENE
Cosmos 2322 Rocket 2.5 01:44:26 10° SSW 01:50:00 66° ESE 01:55:34 10° NE
BREEZE-M R/B 2.4 01:46:40 10° W 01:50:52 57° S 01:53:29 10° ESE
Nadezhda 3 Rocket 4.2 01:45:05 10° NNW 01:51:17 61° W 01:57:31 10° S
STARLINK-1266 3.3 01:47:55 10° WSW 01:51:37 78° SSE 01:55:20 10° ENE
In-Cosmos 22 Rocket 4.3 01:46:39 10° S 01:52:15 85° E 01:57:45 10° NNE
STARLINK-64 3.7 01:50:05 11° SW 01:53:21 47° SSE 01:56:49 10° ENE
ARIANE 5 R/B 3.3 01:48:44 10° NNE 01:53:36 47° E 01:58:24 10° S
STARLINK-1284 3.3 01:51:09 10° WSW 01:54:52 81° SSE 01:58:35 10° ENE
GP-B 4.5 01:51:22 10° NNW 01:54:59 25° WNW 01:58:37 10° SW
STARLINK 1040 2.9 01:52:36 10° W 01:55:09 61° N 01:57:41 10° E
STARLINK-1444 3.7 01:54:14 10° WSW 01:55:45 16° SW 01:57:19 10° S
STARLINK-1452 3.7 01:54:51 10° WSW 01:56:22 16° SW 01:57:54 10° S
STARLINK-1450 3.8 01:56:09 10° WSW 01:57:33 15° SW 01:59:00 10° S
STARLINK-1436 (VISORSAT) 3.8 01:56:11 10° WSW 01:57:38 16° SW 01:59:08 10° S
STARLINK-1392 3.8 01:56:16 10° WSW 01:57:41 15° SW 01:59:08 10° S
STARLINK-1399 3.8 01:56:17 10° WSW 01:57:42 15° SW 01:59:08 10° S
STARLINK-1415 3.8 01:56:18 10° WSW 01:57:42 15° SW 01:59:09 10° S
STARLINK-1394 3.8 01:56:18 10° WSW 01:57:42 15° SW 01:59:09 10° S
STARLINK-1414 3.8 01:56:15 10° WSW 01:57:42 16° SW 01:59:12 10° S
STARLINK-1395 3.8 01:56:18 10° WSW 01:57:42 15° SW 01:59:09 10° S
STARLINK-1398 3.8 01:56:15 10° WSW 01:57:42 16° SW 01:59:13 10° S
STARLINK-1393 3.8 01:56:18 10° WSW 01:57:43 15° SW 01:59:10 10° S
STARLINK-1416 3.8 01:56:16 10° WSW 01:57:44 16° SW 01:59:13 10° S
STARLINK-1396 3.8 01:56:19 10° WSW 01:57:44 15° SW 01:59:10 10° S
STARLINK-1397 3.8 01:56:19 10° WSW 01:57:44 15° SW 01:59:10 10° S
STARLINK-1401 3.8 01:56:19 10° WSW 01:57:44 15° SW 01:59:10 10° S
STARLINK-1404 3.8 01:56:20 10° WSW 01:57:45 15° SW 01:59:11 10° S
STARLINK-1408 3.8 01:56:18 10° WSW 01:57:45 16° SW 01:59:14 10° S
STARLINK-1453 3.8 01:56:21 10° WSW 01:57:45 15° SW 01:59:11 10° S
STARLINK-1402 3.8 01:56:22 10° WSW 01:57:45 15° SW 01:59:13 10° S
STARLINK-1417 3.8 01:56:22 10° WSW 01:57:46 15° SW 01:59:13 10° S
STARLINK-1419 3.8 01:56:18 10° WSW 01:57:46 16° SW 01:59:15 10° S
STARLINK-1413 3.8 01:56:23 10° WSW 01:57:47 15° SW 01:59:14 10° S
STARLINK-1406 3.8 01:56:23 10° WSW 01:57:47 15° SW 01:59:14 10° S
STARLINK-1420 3.8 01:56:20 10° WSW 01:57:48 16° SW 01:59:18 10° S
STARLINK-1440 3.8 01:56:25 10° WSW 01:57:49 15° SW 01:59:16 10° S
STARLINK-1422 3.8 01:56:22 10° WSW 01:57:49 16° SW 01:59:19 10° S
STARLINK-1445 3.8 01:56:25 10° WSW 01:57:50 15° SW 01:59:16 10° S
STARLINK-1460 3.8 01:56:22 10° WSW 01:57:50 16° SW 01:59:20 10° S
STARLINK-1458 3.8 01:56:23 10° WSW 01:57:50 16° SW 01:59:20 10° S
STARLINK-1443 3.8 01:56:27 10° WSW 01:57:51 15° SW 01:59:17 10° S
STARLINK-1454 3.8 01:56:27 10° WSW 01:57:51 15° SW 01:59:17 10° S
STARLINK-1457 3.8 01:56:27 10° WSW 01:57:52 15° SW 01:59:18 10° S
STARLINK-1456 3.8 01:56:28 10° WSW 01:57:52 15° SW 01:59:18 10° S
STARLINK-1451 3.8 01:56:28 10° WSW 01:57:52 15° SW 01:59:19 10° S
STARLINK-1437 3.8 01:56:27 10° WSW 01:57:53 15° SW 01:59:23 10° S
STARLINK-1442 3.8 01:56:29 10° WSW 01:57:53 15° SW 01:59:20 10° S
STARLINK-1446 3.8 01:56:26 10° WSW 01:57:54 16° SW 01:59:24 10° S
STARLINK-1405 3.8 01:56:32 10° WSW 01:57:56 15° SW 01:59:22 10° S
STARLINK-1421 3.8 01:56:32 10° WSW 01:57:56 15° SW 01:59:22 10° S
STARLINK-1400 3.8 01:56:32 10° WSW 01:57:56 15° SW 01:59:23 10° S
STARLINK-1410 3.8 01:56:32 10° WSW 01:57:56 15° SW 01:59:23 10° S
STARLINK-1423 3.8 01:56:30 10° WSW 01:57:57 16° SW 01:59:26 10° S
STARLINK-1447 3.8 01:56:29 10° WSW 01:57:57 16° SW 01:59:27 10° S
STARLINK-1407 3.8 01:56:33 10° WSW 01:57:57 15° SW 01:59:23 10° S
STARLINK-1455 3.8 01:56:30 10° WSW 01:57:57 16° SW 01:59:27 10° S
STARLINK-1439 3.8 01:56:33 10° WSW 01:57:57 15° SW 01:59:24 10° S
STARLINK-1409 3.8 01:56:34 10° WSW 01:57:58 15° SW 01:59:24 10° S
STARLINK-1441 3.8 01:56:30 10° WSW 01:57:58 16° SW 01:59:28 10° S
STARLINK-1351 3.8 01:56:35 10° WSW 01:57:59 15° SW 01:59:25 10° S
STARLINK-1370 3.8 01:56:35 10° WSW 01:57:59 15° SW 01:59:25 10° S
STARLINK-1418 3.8 01:56:35 10° WSW 01:57:59 15° SW 01:59:26 10° S
STARLINK-1434 3.8 01:56:35 10° WSW 01:57:59 15° SW 01:59:26 10° S
STARLINK-1448 3.8 01:56:32 10° WSW 01:57:59 16° SW 01:59:30 10° S
STARLINK-1449 3.8 01:56:32 10° WSW 01:58:00 16° SW 01:59:30 10° S
STARLINK-1403 3.8 01:56:36 10° WSW 01:58:00 15° SW 01:59:27 10° S
STARLINK-1433 3.8 01:56:38 10° WSW 01:58:01 15° SW 01:59:28 10° S
STARLINK-1411 3.8 01:56:39 10° WSW 01:58:02 15° SW 01:59:29 10° S
STARLINK-1438 3.8 01:56:39 10° WSW 01:58:03 15° SW 01:59:29 10° S
STARLINK-1258 3.3 01:54:24 10° WSW 01:58:07 83° SSE 02:01:52 10° ENE
STARLINK-1412 3.8 01:56:40 10° WSW 01:58:08 16° SW 01:59:38 10° S
STARLINK-1278 4.3 01:54:46 10° SW 01:58:46 44° SSE 02:02:50 10° ENE
Cosmos 1697 Rocket 4.3 01:54:18 10° W 01:59:05 27° NW 02:03:53 10° NNE
STARLINK-1304 4.4 01:55:17 10° SW 01:59:05 39° SSE 02:02:58 10° ENE
STARLINK-55 3.0 01:56:06 10° W 01:59:18 78° NNW 02:02:31 10° ENE
Cosmos 2221 3.3 01:55:28 10° NNW 01:59:28 36° W 02:03:29 10° SSW
NOSS 2-1 (C) 3.0 01:56:56 10° SW 02:00:15 78° SE 02:04:01 10° NE
USA 229 DEB 4.3 01:53:44 10° NW 02:00:25 41° WSW 02:07:24 10° S
USA 229 4.3 01:53:51 10° NW 02:00:32 41° WSW 02:07:31 10° S
STARLINK-1280 4.2 01:56:32 10° SW 02:00:36 45° SSE 02:04:41 10° ENE
STARLINK-1292 3.3 01:57:40 10° WSW 02:01:24 85° SSE 02:05:08 10° ENE
STARLINK-1338 3.5 01:59:23 10° WNW 02:03:21 85° SSW 02:07:18 10° ESE
Resurs 1-4 Rocket 2.8 01:59:20 10° N 02:04:20 43° WNW 02:09:18 10° SW
STARLINK-1301 3.4 02:00:50 10° WSW 02:04:39 88° SSE 02:08:30 10° ENE
NOSS 2-1 (D) 3.0 02:01:44 10° SW 02:05:07 86° SE 02:08:56 10° NE
BREEZE-M DEB (TANK) 1.6 02:05:15 10° W 02:07:27 41° SSW 02:10:20 10° ESE
STARLINK-1289 3.3 02:04:12 10° WSW 02:07:56 89° S 02:11:41 10° ENE
STARLINK-1283 3.6 02:04:13 10° WSW 02:08:19 89° NW 02:12:26 10° ENE
STARLINK-29 3.8 02:05:35 10° W 02:08:25 29° SSW 02:11:14 10° SSE
AQUA 4.3 02:04:19 10° N 02:08:54 48° WNW 02:13:28 10° SW
NOSS 3-1 (A) 4.3 02:02:28 10° NW 02:09:38 50° WSW 02:17:48 10° SSE
STARLINK-28 3.2 02:07:31 10° W 02:10:44 73° N 02:13:56 10° ENE
STARLINK-1303 3.4 02:07:31 10° WSW 02:11:15 89° NNW 02:15:00 10° ENE
STARLINK-1371 3.4 02:07:32 10° WNW 02:11:30 80° SSW 02:15:26 10° ESE
STARLINK-26 3.3 02:08:44 10° W 02:12:11 75° N 02:15:38 10° ENE
STARLINK-1286 4.1 02:10:03 10° SW 02:14:05 48° SSE 02:18:07 10° ENE
STARLINK-1312 3.4 02:10:51 10° WSW 02:14:35 88° N 02:18:20 10° ENE
STARLINK-1341 3.4 02:11:39 10° WNW 02:15:36 78° SSW 02:19:33 10° ESE
Cosmos 1328 Rocket 4.5 02:12:50 10° N 02:17:10 52° ENE 02:21:26 10° SSE
STARLINK-48 3.5 02:13:51 10° WSW 02:17:43 72° SSE 02:21:37 10° ENE
Cosmos 1825 2.5 02:14:49 10° S 02:18:33 68° E 02:22:18 10° NNE
STARLINK-1281 4.1 02:14:56 10° SW 02:18:56 50° SSE 02:22:57 10° ENE
Cosmos 1408 2.6 02:15:33 10° SSW 02:19:14 80° W 02:22:56 10° N
STARLINK-1374 3.4 02:15:45 10° WNW 02:19:42 75° SSW 02:23:39 10° ESE
Cosmos 1727 Rocket 4.5 02:15:32 10° N 02:21:43 66° ENE 02:27:50 10° SSE
Cosmos 1844 Rocket 2.7 02:16:12 10° NNW 02:21:50 78° WSW 02:27:24 10° SSE
